When you browse on this site, cookies collect data to enhance your experience and personalize the content and advertising you see.
Visit our Privacy Policy to learn more. By continuing to use the site, you agree to this use of cookies and data.
  • In Hungary
  • List of Countries
  • For 7 days
  • Water Temperature
  • Weather Map
  • News
  • Weather Widgets
  • user-avatar
    Login

    Hourly Weather Lebzino

    Today, 20 January, Monday

    Time Temperature Precipitation Wind Pressure Humidity
    00:00 -1°C° 0 mm 4 mps 747 mmHg 91%
    01:00 -1°C° 0 mm 4 mps 747 mmHg 90%
    02:00 -1°C° 0 mm 4 mps 747 mmHg 91%
    03:00 -1°C° 0 mm 5 mps 747 mmHg 91%
    04:00 -1°C° 0 mm 5 mps 747 mmHg 90%
    05:00 -1°C° 0 mm 5 mps 747 mmHg 90%
    06:00 -1°C° 0 mm 5 mps 747 mmHg 89%
    07:00 -1°C° 0 mm 5 mps 747 mmHg 88%
    08:00 -1°C° 0 mm 4 mps 747 mmHg 87%
    09:00 -1°C° 0 mm 5 mps 747 mmHg 87%
    10:00 -1°C° 0 mm 5 mps 746 mmHg 87%
    11:00 -1°C° 0 mm 5 mps 746 mmHg 87%
    12:00 -1°C° 0 mm 5 mps 746 mmHg 87%
    13:00 -1°C° 0 mm 5 mps 747 mmHg 87%
    14:00 -1°C° 0 mm 5 mps 747 mmHg 87%
    15:00 -1°C° 0 mm 5 mps 746 mmHg 87%
    16:00 -1°C° 0 mm 5 mps 746 mmHg 86%
    17:00 -1°C° 0 mm 5 mps 746 mmHg 85%
    18:00 -2°C° 0 mm 5 mps 746 mmHg 85%
    19:00 -2°C° 0 mm 5 mps 745 mmHg 85%
    20:00 -2°C° 0 mm 5 mps 745 mmHg 84%
    21:00 -2°C° 0 mm 5 mps 744 mmHg 84%
    22:00 -2°C° 0 mm 5 mps 744 mmHg 84%
    23:00 -2°C° 0 mm 5 mps 743 mmHg 84%

    Tomorrow, 21 January, Tuesday

    Time Temperature Precipitation Wind Pressure Humidity
    00:00 -2°C° 0 mm 5 mps 743 mmHg 84%
    01:00 -2°C° 0 mm 5 mps 742 mmHg 85%
    02:00 -2°C° 0 mm 5 mps 741 mmHg 85%
    03:00 -3°C° 0 mm 6 mps 740 mmHg 86%
    04:00 -3°C° 0 mm 6 mps 739 mmHg 88%
    05:00 -2°C° 0 mm 6 mps 738 mmHg 90%
    06:00 -2°C° 0.1 mm 6 mps 738 mmHg 90%
    07:00 -1°C° 0.1 mm 6 mps 737 mmHg 90%
    08:00 -1°C° 0.1 mm 6 mps 736 mmHg 90%
    09:00 +1°C° 0 mm 6 mps 736 mmHg 90%
    10:00 +1°C° 0 mm 6 mps 735 mmHg 91%
    11:00 +2°C° 0 mm 6 mps 735 mmHg 91%
    12:00 +2°C° 0 mm 6 mps 734 mmHg 91%
    13:00 +2°C° 0 mm 6 mps 734 mmHg 92%
    14:00 +2°C° 0 mm 6 mps 733 mmHg 92%
    15:00 +3°C° 0.3 mm 6 mps 732 mmHg 91%
    16:00 +3°C° 0.3 mm 6 mps 731 mmHg 90%
    17:00 +4°C° 0.3 mm 7 mps 729 mmHg 89%
    18:00 +3°C° 0.9 mm 7 mps 729 mmHg 89%
    19:00 +3°C° 0.9 mm 7 mps 729 mmHg 90%
    20:00 +3°C° 0.9 mm 7 mps 729 mmHg 90%
    21:00 +1°C° 0 mm 6 mps 730 mmHg 85%
    22:00 -1°C° 0 mm 6 mps 730 mmHg 80%
    23:00 -2°C° 0 mm 6 mps 730 mmHg 75%

    Day after tomorrow, 22 January, Wednesday

    Time Temperature Precipitation Wind Pressure Humidity
    00:00 -3°C° 0 mm 6 mps 730 mmHg 75%
    01:00 -3°C° 0 mm 6 mps 730 mmHg 75%
    02:00 -4°C° 0 mm 5 mps 730 mmHg 75%
    03:00 -4°C° 0 mm 5 mps 730 mmHg 76%
    04:00 -4°C° 0 mm 5 mps 729 mmHg 78%
    05:00 -4°C° 0 mm 5 mps 729 mmHg 79%
    06:00 -4°C° 0.1 mm 5 mps 728 mmHg 79%
    07:00 -4°C° 0.1 mm 6 mps 728 mmHg 78%
    08:00 -4°C° 0.1 mm 6 mps 727 mmHg 77%
    09:00 -4°C° 0.1 mm 6 mps 727 mmHg 78%
    10:00 -3°C° 0.1 mm 6 mps 726 mmHg 79%
    11:00 -3°C° 0.1 mm 6 mps 726 mmHg 79%
    12:00 -3°C° 0.3 mm 6 mps 726 mmHg 75%
    13:00 -3°C° 0.3 mm 6 mps 726 mmHg 70%
    14:00 -3°C° 0.3 mm 6 mps 726 mmHg 65%
    15:00 -4°C° 0 mm 6 mps 726 mmHg 69%
    16:00 -4°C° 0 mm 6 mps 726 mmHg 74%
    17:00 -5°C° 0 mm 6 mps 726 mmHg 78%
    18:00 -5°C° 0 mm 6 mps 726 mmHg 78%
    19:00 -5°C° 0 mm 6 mps 727 mmHg 78%
    20:00 -5°C° 0 mm 6 mps 727 mmHg 79%
    21:00 -5°C° 0 mm 6 mps 728 mmHg 78%
    22:00 -6°C° 0 mm 6 mps 729 mmHg 77%
    23:00 -6°C° 0 mm 6 mps 729 mmHg 76%

    23 January, Thursday

    Time Temperature Precipitation Wind Pressure Humidity
    00:00 -8°C° 0 mm 6 mps 730 mmHg 74%
    01:00 -8°C° 0 mm 6 mps 731 mmHg 73%
    02:00 -9°C° 0 mm 6 mps 731 mmHg 71%
    03:00 -9°C° 0 mm 6 mps 732 mmHg 71%
    04:00 -9°C° 0 mm 6 mps 732 mmHg 70%
    05:00 -9°C° 0 mm 6 mps 733 mmHg 70%
    06:00 -9°C° 0 mm 6 mps 733 mmHg 65%
    07:00 -9°C° 0 mm 6 mps 734 mmHg 60%
    08:00 -9°C° 0 mm 6 mps 734 mmHg 56%
    09:00 -8°C° 0 mm 6 mps 735 mmHg 58%
    10:00 -8°C° 0 mm 7 mps 735 mmHg 60%
    11:00 -7°C° 0 mm 7 mps 736 mmHg 62%
    12:00 -7°C° 0 mm 7 mps 736 mmHg 60%
    13:00 -6°C° 0 mm 6 mps 737 mmHg 57%
    14:00 -6°C° 0 mm 6 mps 737 mmHg 55%
    15:00 -7°C° 0 mm 5 mps 737 mmHg 56%
    16:00 -7°C° 0 mm 4 mps 738 mmHg 58%
    17:00 -7°C° 0 mm 3 mps 738 mmHg 59%
    18:00 -7°C° 0 mm 3 mps 738 mmHg 60%
    19:00 -7°C° 0 mm 2 mps 739 mmHg 60%
    20:00 -7°C° 0 mm 2 mps 739 mmHg 61%
    21:00 -7°C° 0 mm 2 mps 739 mmHg 64%
    22:00 -6°C° 0 mm 2 mps 739 mmHg 67%
    23:00 -6°C° 0 mm 2 mps 739 mmHg 69%

    24 January, Friday

    Time Temperature Precipitation Wind Pressure Humidity
    00:00 -6°C° 0.1 mm 3 mps 738 mmHg 77%
    01:00 -7°C° 0.1 mm 4 mps 737 mmHg 85%
    02:00 -5°C° 0.1 mm 4 mps 737 mmHg 93%
    03:00 -6°C° 0.1 mm 5 mps 736 mmHg 92%
    04:00 -6°C° 0.1 mm 5 mps 735 mmHg 91%
    05:00 -5°C° 0.1 mm 5 mps 734 mmHg 90%
    06:00 -5°C° 0.1 mm 5 mps 734 mmHg 91%
    07:00 -5°C° 0.1 mm 5 mps 733 mmHg 92%
    08:00 -5°C° 0.1 mm 5 mps 733 mmHg 92%
    09:00 -2°C° 0.1 mm 4 mps 733 mmHg 93%
    10:00 -1°C° 0.1 mm 4 mps 733 mmHg 94%
    11:00 0°C° 0.1 mm 4 mps 732 mmHg 96%
    12:00 0°C° 0.2 mm 4 mps 732 mmHg 96%
    13:00 0°C° 0.2 mm 4 mps 732 mmHg 96%
    14:00 0°C° 0.2 mm 5 mps 731 mmHg 96%
    15:00 0°C° 0.1 mm 5 mps 731 mmHg 96%
    16:00 0°C° 0.1 mm 5 mps 731 mmHg 95%
    17:00 0°C° 0.1 mm 5 mps 731 mmHg 95%
    18:00 +1°C° 0.1 mm 5 mps 731 mmHg 94%
    19:00 +1°C° 0.1 mm 5 mps 730 mmHg 94%
    20:00 +1°C° 0.1 mm 5 mps 730 mmHg 94%
    21:00 0°C° 0.2 mm 5 mps 730 mmHg 95%
    22:00 0°C° 0.2 mm 5 mps 730 mmHg 95%
    23:00 0°C° 0.2 mm 5 mps 730 mmHg 96%

    25 January, Saturday

    Time Temperature Precipitation Wind Pressure Humidity
    00:00 0°C° 0.3 mm 5 mps 730 mmHg 96%
    01:00 +1°C° 0.3 mm 5 mps 730 mmHg 96%
    02:00 +1°C° 0.3 mm 5 mps 730 mmHg 95%
    03:00 +1°C° 0.2 mm 5 mps 730 mmHg 95%
    04:00 +1°C° 0.2 mm 4 mps 730 mmHg 96%
    05:00 +1°C° 0.2 mm 4 mps 730 mmHg 96%
    06:00 +1°C° 0.1 mm 4 mps 730 mmHg 95%
    07:00 +1°C° 0.1 mm 4 mps 730 mmHg 95%
    08:00 +2°C° 0.1 mm 3 mps 731 mmHg 94%
    09:00 +2°C° 0.2 mm 3 mps 731 mmHg 94%
    10:00 +2°C° 0.2 mm 3 mps 732 mmHg 95%
    11:00 +1°C° 0.2 mm 4 mps 732 mmHg 95%
    12:00 +1°C° 0.1 mm 4 mps 732 mmHg 94%
    13:00 +1°C° 0.1 mm 4 mps 732 mmHg 93%
    14:00 +1°C° 0.1 mm 4 mps 732 mmHg 92%
    15:00 0°C° 0 mm 4 mps 733 mmHg 91%
    16:00 0°C° 0 mm 3 mps 733 mmHg 91%
    17:00 0°C° 0 mm 3 mps 733 mmHg 91%
    18:00 -1°C° 0 mm 3 mps 734 mmHg 92%
    19:00 -1°C° 0 mm 2 mps 734 mmHg 93%
    20:00 -2°C° 0 mm 2 mps 734 mmHg 95%
    21:00 -2°C° 0 mm 2 mps 735 mmHg 95%
    22:00 -2°C° 0 mm 2 mps 735 mmHg 95%
    23:00 -2°C° 0 mm 2 mps 735 mmHg 96%
    Show more